Home   Weather   Montego Bay   Past weeks

Flag for Jamaica Past Weather in Montego Bay, Jamaica — Yesterday and Last 2 Weeks

Now
86 °F

Passing clouds.


Feels Like: 95 °F
Forecast: 77 / 87 °F
Wind: 14 mph from East

Location: Montego Bay / Sangster

Current Time: May 29, 2017 at 2:11:20 pm

Latest Report: May 29, 2017 at 1:00 pm


Visibility: N/A

Pressure: 30.01 "Hg

Humidity: 70%

Dew Point: 75 °F

Location of Montego BayLocation

Past Weather in Montego Bay — Graph

°F

Montego Bay Temperature Yesterday

Maximum temperature yesterday: 88 °F (at 3:00 pm)
Minimum temperature yesterday: 77 °F (at 2:00 am)
Average temperature yesterday: 82 °F

High & Low Weather Summary for the Past Weeks

 TemperatureHumidityPressure
High93 °F (May 25, 12:00 pm)100% (May 16, 6:00 am)30.01 "Hg (May 16, 6:00 am)
Low75 °F (May 16, 4:00 am)53% (May 25, 12:00 pm)29.80 "Hg (May 15, 3:00 pm)
Average82 °F80%29.92 "Hg
* Reported May 14 1:00 pm — May 29 1:00 pm, Montego Bay. Weather by CustomWeather, © 2017

Note: Actual official high and low records may vary slightly from our data, if they occured in-between our weather recording intervals... More about our weather records

Advertising

Montego Bay Weather History for the Previous 24 Hours

Scroll right to see more
 ConditionsComfort  
Time TempWeatherWind HumidityBarometerVisibility
1:00 pm
Mon, May 29
86 °FPassing clouds.14 mph70%30.01 "HgN/A
12:00 pm86 °FPassing clouds.15 mph70%30.01 "HgN/A
11:00 am86 °FPassing clouds.12 mph70%30.01 "HgN/A
10:00 am86 °FPassing clouds.10 mph70%30.01 "HgN/A
9:00 am84 °FPartly sunny.13 mph70%30.01 "HgN/A
8:00 am84 °FPassing clouds.9 mph74%30.01 "HgN/A
7:00 am82 °FPassing clouds.1 mph74%30.01 "HgN/A
6:00 am77 °FPassing clouds.1 mph83%29.98 "HgN/A
5:00 am77 °FPassing clouds.2 mph83%29.98 "HgN/A
4:00 am77 °FPassing clouds.3 mph83%29.98 "HgN/A
3:00 am77 °FPassing clouds.2 mph83%29.95 "HgN/A
2:00 am77 °FPassing clouds.1 mph83%29.98 "HgN/A
1:00 am77 °FPassing clouds.2 mph89%29.98 "HgN/A
12:00 am79 °FPassing clouds.3 mph84%29.98 "HgN/A
11:00 pm
Sun, May 28
79 °FPassing clouds.3 mph84%30.01 "HgN/A
10:00 pm81 °FPassing clouds.5 mph84%30.01 "HgN/A
9:00 pm81 °FPassing clouds.2 mph89%29.98 "HgN/A
8:00 pm81 °FPassing clouds.5 mph89%29.98 "HgN/A
7:00 pm81 °FPassing clouds.6 mph89%29.98 "HgN/A
6:00 pm82 °FScattered showers. Partly sunny.15 mph84%29.95 "HgN/A
5:00 pm84 °FScattered showers. Partly sunny.16 mph79%29.95 "HgN/A
4:00 pm86 °FPartly sunny.23 mph75%29.92 "HgN/A
3:00 pm88 °FScattered clouds.24 mph70%29.95 "HgN/A
2:00 pm86 °FScattered clouds.24 mph75%29.95 "HgN/A
Weather by CustomWeather, © 2017

See weather overviewHow to use our weather pages